FW7093 Weather Reports


time (UTC)temp
C
wind
direction
speed
KPH
gust
KPH
rain 1hr
cm
rain 24hr
cm
rain mn
cm
humidity
%
barometer
mb
20260510190551 27 207 8.0 22.5 0.00 0.00 0.00 43 1012.2
20260510190058 27 348 4.8 17.7 0.00 0.00 0.00 44 1012.3
20260510185547 27 327 8.0 19.3 0.00 0.00 0.00 40 1012.3
20260510185047 27 338 6.4 19.3 0.00 0.00 0.00 53 1012.2
20260510184551 26 207 8.0 24.1 0.00 0.00 0.00 41 1012.2
20260510184047 27 265 9.7 24.1 0.00 0.00 0.00 46 1012.2
20260510183547 27 296 6.4 22.5 0.00 0.00 0.00 46 1012.2
20260510183059 27 251 8.0 17.7 0.00 0.00 0.00 44 1012.3
20260510182547 26 265 4.8 16.1 0.00 0.00 0.00 43 1012.1
20260510182047 26 323 4.8 17.7 0.00 0.00 0.00 45 1012.1
20260510181556 26 255 8.0 17.7 0.00 0.00 0.00 46 1012.2
20260510181046 26 249 6.4 17.7 0.00 0.00 0.00 40 1012.2
20260510180544 27 338 9.7 17.7 0.00 0.00 0.00 44 1012.2
20260510180055 26 251 3.2 12.9 0.00 0.00 0.00 41 1012.3
20260510175545 26 0 3.2 20.9 0.00 0.00 0.00 44 1012.5
20260510175048 26 0 8.0 20.9 0.00 0.00 0.00 47 1012.5
20260510174556 26 0 3.2 9.7 0.00 0.00 0.00 42 1012.5
20260510174045 26 0 3.2 17.7 0.00 0.00 0.00 45 1012.4
20260510173546 26 253 4.8 17.7 0.00 0.00 0.00 54 1012.3
20260510173052 26 257 4.8 11.3 0.00 0.00 0.00 49 1012.3
20260510172547 25 0 1.6 14.5 0.00 0.00 0.00 51 1012.4
20260510172047 26 220 6.4 14.5 0.00 0.00 0.00 48 1012.4
20260510171554 25 284 4.8 12.9 0.00 0.00 0.00 54 1012.4
20260510171047 26 236 4.8 12.9 0.00 0.00 0.00 48 1012.4
20260510170547 25 220 3.2 14.5 0.00 0.00 0.00 49 1012.5
20260510170052 25 244 4.8 14.5 0.00 0.00 0.00 51 1012.5
20260510165546 25 215 1.6 11.3 0.00 0.00 0.00 50 1012.6
20260510165049 25 232 3.2 14.5 0.00 0.00 0.00 48 1012.5
20260510164555 25 192 3.2 14.5 0.00 0.00 0.00 51 1012.8
20260510164044 25 0 1.6 11.3 0.00 0.00 0.00 59 1012.6
20260510163546 24 0 1.6 14.5 0.00 0.00 0.00 52 1012.5
20260510163053 25 355 0.0 14.5 0.00 0.00 0.00 57 1012.5
20260510162552 24 224 3.2 12.9 0.00 0.00 0.00 51 1012.4
20260510162045 24 155 4.8 12.9 0.00 0.00 0.00 50 1012.5
20260510161551 25 263 4.8 12.9 0.00 0.00 0.00 54 1012.4
20260510161047 24 149 3.2 12.9 0.00 0.00 0.00 54 1012.7
20260510160543 23 275 3.2 12.9 0.00 0.00 0.00 52 1012.7
20260510160132 23 326 1.6 12.9 0.00 0.00 0.00 55 1012.7
20260510155546 23 330 3.2 16.1 0.00 0.00 0.00 59 1012.7
20260510155047 23 249 3.2 16.1 0.00 0.00 0.00 58 1012.7
20260510154605 23 332 4.8 16.1 0.00 0.00 0.00 61 1012.8
20260510154048 23 249 6.4 19.3 0.00 0.00 0.00 64 1012.7
20260510153547 23 253 6.4 19.3 0.00 0.00 0.00 59 1012.9
20260510153051 23 319 9.7 19.3 0.00 0.00 0.00 56 1012.9
20260510152546 23 301 6.4 19.3 0.00 0.00 0.00 55 1012.9
20260510152045 23 322 6.4 19.3 0.00 0.00 0.00 56 1012.9
20260510151558 23 305 9.7 19.3 0.00 0.00 0.00 61 1012.8
20260510151045 23 291 8.0 17.7 0.00 0.00 0.00 59 1012.8
20260510150546 22 306 3.2 16.1 0.00 0.00 0.00 60 1012.7
20260510150055 22 263 3.2 16.1 0.00 0.00 0.00 64 1012.6
20260510145545 22 317 1.6 11.3 0.00 0.00 0.00 60 1012.6
20260510145045 22 238 3.2 11.3 0.00 0.00 0.00 62 1012.6
20260510144551 22 188 1.6 8.0 0.00 0.00 0.00 63 1012.6
20260510144044 21 215 3.2 8.0 0.00 0.00 0.00 67 1012.7
20260510143544 21 0 0.0 6.4 0.00 0.00 0.00 69 1012.8
20260510143056 21 0 0.0 8.0 0.00 0.00 0.00 68 1012.8
20260510142547 21 309 1.6 8.0 0.00 0.00 0.00 71 1012.8
20260510142045 20 332 0.0 6.4 0.00 0.00 0.00 71 1012.9
20260510141551 20 174 0.0 6.4 0.00 0.00 0.00 73 1012.8
20260510141045 20 161 0.0 4.8 0.00 0.00 0.00 72 1012.9
20260510140547 19 310 0.0 3.2 0.00 0.00 0.00 73 1013.0
20260510140057 19 58 0.0 4.8 0.00 0.00 0.00 76 1012.9
20260510135546 18 0 0.0 4.8 0.00 0.00 0.00 78 1012.8
20260510135048 18 70 0.0 4.8 0.00 0.00 0.00 76 1012.8
20260510134553 18 79 0.0 4.8 0.00 0.00 0.00 79 1012.8
20260510134042 17 313 0.0 8.0 0.00 0.00 0.00 78 1012.9
20260510133542 17 313 1.6 8.0 0.00 0.00 0.00 78 1012.9
20260510133053 17 234 0.0 4.8 0.00 0.00 0.00 82 1012.8
20260510132543 17 0 0.0 3.2 0.00 0.00 0.00 80 1012.7
20260510132043 17 0 0.0 3.2 0.00 0.00 0.00 81 1012.8
20260510131554 16 202 0.0 3.2 0.00 0.00 0.00 81 1012.8
20260510131045 16 0 0.0 3.2 0.00 0.00 0.00 82 1013.0
20260510130544 16 57 0.0 3.2 0.00 0.00 0.00 83 1012.9
20260510130057 16 0 0.0 3.2 0.00 0.00 0.00 85 1012.9
20260510125546 15 0 0.0 3.2 0.00 0.00 0.00 87 1013.0
20260510125043 15 0 0.0 3.2 0.00 0.00 0.00 86 1013.0
20260510124551 15 132 0.0 3.2 0.00 0.00 0.00 87 1012.9
20260510124047 14 0 0.0 1.6 0.00 0.00 0.00 88 1012.9
20260510123547 13 0 0.0 1.6 0.00 0.00 0.00 88 1013.0
20260510123052 13 0 0.0 3.2 0.00 0.00 0.00 89 1013.0
20260510122542 13 0 0.0 4.8 0.00 0.00 0.00 90 1012.8
20260510122044 13 91 0.0 4.8 0.00 0.00 0.00 90 1012.6
20260510121552 13 28 0.0 3.2 0.00 0.00 0.00 92 1012.7
20260510121043 13 0 0.0 3.2 0.00 0.00 0.00 93 1012.7
20260510120542 12 0 0.0 3.2 0.00 0.00 0.00 93 1012.7
20260510120053 12 28 0.0 4.8 0.00 0.00 0.00 94 1012.7
20260510115546 12 0 0.0 4.8 0.00 0.00 0.00 94 1012.5
20260510115042 12 28 0.0 3.2 0.00 0.00 0.00 95 1012.5
20260510114550 11 0 0.0 11.3 0.00 0.00 0.00 95 1012.4
20260510114046 11 0 0.0 11.3 0.00 0.00 0.00 95 1012.4
20260510113542 11 332 0.0 8.0 0.00 0.00 0.00 95 1012.6
20260510113051 11 315 0.0 4.8 0.00 0.00 0.00 95 1012.5
20260510112547 11 30 0.0 1.6 0.00 0.00 0.00 96 1012.2
20260510112051 11 0 0.0 1.6 0.00 0.00 0.00 95 1012.0
20260510111605 10 0 0.0 1.6 0.00 0.00 0.00 96 1012.0
20260510111047 10 0 0.0 1.6 0.00 0.00 0.00 95 1011.9
20260510110549 10 0 0.0 0.0 0.00 0.00 0.00 96 1011.8
20260510110052 10 0 0.0 3.2 0.00 0.00 0.00 95 1011.8
20260510105543 10 0 0.0 6.4 0.00 0.00 0.00 96 1011.7
20260510105044 10 0 0.0 6.4 0.00 0.00 0.00 96 1011.6
20260510104552 9 323 3.2 6.4 0.00 0.00 0.00 96 1011.8
20260510104042 9 323 1.6 4.8 0.00 0.00 0.00 96 1011.5
20260510103545 8 51 0.0 3.2 0.00 0.00 0.00 95 1011.2
20260510103052 8 0 0.0 3.2 0.00 0.00 0.00 95 1011.1
20260510102542 8 0 0.0 3.2 0.00 0.00 0.00 95 1011.0
20260510102042 7 0 0.0 0.0 0.00 0.00 0.00 95 1011.2
20260510101552 8 0 0.0 0.0 0.00 0.00 0.00 95 1011.2
20260510101046 8 0 0.0 0.0 0.00 0.00 0.00 95 1011.2
20260510100546 8 0 0.0 0.0 0.00 0.00 0.00 95 1011.2
20260510100055 8 0 0.0 0.0 0.00 0.00 0.00 95 1011.4
20260510095544 8 0 0.0 0.0 0.00 0.00 0.00 95 1011.2
20260510095042 8 0 0.0 1.6 0.00 0.00 0.00 95 1011.1
20260510094556 8 0 0.0 3.2 0.00 0.00 0.00 95 1011.2
20260510094044 9 0 0.0 3.2 0.00 0.00 0.00 95 1011.0
20260510093543 9 0 0.0 4.8 0.00 0.00 0.00 95 1011.1
20260510093103 10 0 0.0 4.8 0.00 0.00 0.00 95 1010.9
20260510092544 10 0 0.0 4.8 0.00 0.00 0.00 95 1011.2
20260510092043 10 0 0.0 9.7 0.00 0.00 0.00 95 1011.0
20260510091554 10 69 1.6 9.7 0.00 0.00 0.00 95 1011.1
20260510091043 10 0 0.0 9.7 0.00 0.00 0.00 95 1010.8
20260510090546 10 338 1.6 16.1 0.00 0.00 0.00 95 1011.1
20260510090117 10 0 1.6 16.1 0.00 0.00 0.00 95 1010.8
20260510085544 9 301 6.4 16.1 0.00 0.00 0.00 95 1010.9
20260510085046 8 0 6.4 16.1 0.00 0.00 0.00 95 1010.8
20260510084550 8 0 0.0 0.0 0.00 0.00 0.00 95 1010.5
20260510084043 8 0 0.0 0.0 0.00 0.00 0.00 95 1010.5
20260510083546 8 0 0.0 3.2 0.00 0.00 0.00 95 1010.4
20260510083109 8 0 0.0 3.2 0.00 0.00 0.00 95 1010.3
20260510082546 8 0 0.0 1.6 0.00 0.00 0.00 95 1010.3
20260510082044 8 0 0.0 1.6 0.00 0.00 0.00 95 1010.4
20260510081610 8 0 0.0 1.6 0.00 0.00 0.00 95 1010.4
20260510081044 8 0 0.0 1.6 0.00 0.00 0.00 95 1010.3
20260510080544 8 0 0.0 1.6 0.00 0.00 0.00 95 1010.3
20260510080056 8 0 0.0 0.0 0.00 0.00 0.00 95 1010.4
20260510075545 8 0 0.0 0.0 0.00 0.00 0.00 95 1010.2
20260510075043 8 0 0.0 0.0 0.00 0.00 0.00 95 1010.3
20260510074603 8 0 0.0 3.2 0.00 0.00 0.00 95 1010.4
20260510074049 8 0 0.0 3.2 0.00 0.00 0.00 95 1010.2
20260510073543 8 77 0.0 1.6 0.00 0.00 0.00 95 1010.2
20260510073054 8 0 0.0 0.0 0.00 0.00 0.00 95 1010.1
20260510072544 8 0 0.0 0.0 0.00 0.00 0.00 95 1009.8
20260510072044 8 0 0.0 0.0 0.00 0.00 0.00 94 1010.0
20260510071555 8 0 0.0 0.0 0.00 0.00 0.00 94 1009.8
20260510071046 8 0 0.0 0.0 0.00 0.00 0.00 94 1009.7
20260510070544 8 0 0.0 0.0 0.00 0.00 0.00 95 1009.7
20260510070049 8 0 0.0 0.0 0.00 0.00 0.00 94 1009.7
20260510065548 8 0 0.0 0.0 0.00 0.00 0.00 94 1009.7
20260510065044 8 0 0.0 0.0 0.00 0.00 0.00 94 1009.7
20260510064602 8 0 0.0 0.0 0.00 0.00 0.00 94 1009.6
20260510064043 8 0 0.0 0.0 0.00 0.00 0.00 94 1009.6
20260510063545 8 0 0.0 0.0 0.00 0.00 0.00 94 1009.7
20260510063056 8 0 0.0 0.0 0.00 0.00 0.00 94 1009.7
20260510062546 8 0 0.0 0.0 0.00 0.00 0.00 94 1009.7
20260510062044 8 0 0.0 0.0 0.00 0.00 0.00 94 1009.7
20260510061557 9 0 0.0 0.0 0.00 0.00 0.00 94 1009.9
20260510061044 9 0 0.0 0.0 0.00 0.00 0.00 94 1009.9
20260510060546 9 0 0.0 0.0 0.00 0.00 0.00 94 1009.9
20260510060054 9 0 0.0 0.0 0.00 0.00 0.00 94 1009.9
20260510055542 9 0 0.0 0.0 0.00 0.00 0.00 94 1009.9
20260510055042 9 0 0.0 0.0 0.00 0.00 0.00 94 1010.0
20260510054549 9 0 0.0 0.0 0.00 0.00 0.00 94 1009.9
20260510054042 10 0 0.0 0.0 0.00 0.00 0.00 94 1009.9
20260510053543 9 0 0.0 0.0 0.00 0.00 0.00 94 1010.0
20260510053053 9 0 0.0 0.0 0.00 0.00 0.00 94 1009.8
20260510052542 10 0 0.0 0.0 0.00 0.00 0.00 94 1009.9
20260510052042 10 0 0.0 0.0 0.00 0.00 0.00 94 1009.9
20260510051558 10 0 0.0 0.0 0.00 0.00 0.00 94 1010.0
20260510051046 10 0 0.0 0.0 0.00 0.00 0.00 94 1010.1
20260510050545 9 0 0.0 0.0 0.00 0.00 0.00 94 1010.1
20260510050054 9 0 0.0 0.0 0.00 0.00 0.00 94 1010.1
20260510045550 9 0 0.0 0.0 0.00 0.00 0.00 94 1010.1
20260510045042 9 0 0.0 0.0 0.00 0.00 0.00 94 1010.0
20260510044619 10 0 0.0 0.0 0.00 0.00 0.00 94 1009.9
20260510044042 10 0 0.0 0.0 0.00 0.00 0.00 94 1009.9
20260510043542 10 0 0.0 0.0 0.00 0.00 0.00 94 1010.1
20260510043054 10 0 0.0 0.0 0.00 0.00 0.00 93 1010.0
20260510042542 10 0 0.0 0.0 0.00 0.00 0.00 94 1010.0
20260510042046 10 0 0.0 0.0 0.00 0.00 0.00 93 1010.1
20260510041558 10 0 0.0 0.0 0.00 0.00 0.00 93 1010.1
20260510041042 10 0 0.0 0.0 0.00 0.00 0.00 93 1010.1
20260510040542 10 0 0.0 0.0 0.00 0.00 0.00 93 1010.0
20260510040056 10 0 0.0 0.0 0.00 0.00 0.00 93 1010.2
20260510035548 10 0 0.0 0.0 0.00 0.00 0.00 93 1010.2
20260510035046 10 0 0.0 0.0 0.00 0.00 0.00 93 1010.1
20260510034552 10 0 0.0 0.0 0.00 0.00 0.00 93 1010.1
20260510034046 10 0 0.0 0.0 0.00 0.00 0.00 93 1010.1
20260510033545 10 0 0.0 0.0 0.00 0.00 0.00 93 1010.1
20260510033051 10 0 0.0 0.0 0.00 0.00 0.00 93 1010.1
20260510032545 10 0 0.0 0.0 0.00 0.00 0.00 93 1010.0
20260510032045 10 0 0.0 0.0 0.00 0.00 0.00 93 1010.0
20260510031555 10 0 0.0 0.0 0.00 0.00 0.00 92 1010.0
20260510031046 10 0 0.0 0.0 0.00 0.00 0.00 93 1009.9
20260510030544 10 0 0.0 0.0 0.00 0.00 0.00 92 1009.9
20260510030051 10 0 0.0 0.0 0.00 0.00 0.00 92 1009.9
20260510025542 10 0 0.0 0.0 0.00 0.00 0.00 93 1010.0
20260510025044 10 0 0.0 0.0 0.00 0.00 0.00 92 1009.8
20260510024551 10 0 0.0 0.0 0.00 0.00 0.00 92 1009.9
20260510024042 10 0 0.0 0.0 0.00 0.00 0.00 92 1009.9
20260510023542 11 0 0.0 0.0 0.00 0.00 0.00 92 1009.8
20260510023053 11 0 0.0 0.0 0.00 0.00 0.00 91 1009.8
20260510022542 11 0 0.0 0.0 0.00 0.00 0.00 91 1009.8
20260510022045 11 0 0.0 0.0 0.00 0.00 0.00 91 1009.7
20260510021553 11 0 0.0 0.0 0.00 0.00 0.00 91 1009.9
20260510021043 11 0 0.0 0.0 0.00 0.00 0.00 90 1009.8
20260510020543 11 0 0.0 0.0 0.00 0.00 0.00 90 1009.8
20260510020053 11 0 0.0 0.0 0.00 0.00 0.00 90 1009.7
20260510015543 11 0 0.0 0.0 0.00 0.00 0.00 90 1009.7
20260510015046 11 0 0.0 0.0 0.00 0.00 0.00 90 1009.7
20260510014552 11 0 0.0 0.0 0.00 0.00 0.00 89 1009.6
20260510014043 11 0 0.0 0.0 0.00 0.00 0.00 89 1009.7
20260510013545 11 0 0.0 0.0 0.00 0.00 0.00 88 1009.6
20260510013051 11 0 0.0 0.0 0.00 0.00 0.00 88 1009.7
20260510012544 11 0 0.0 0.0 0.00 0.00 0.00 87 1009.7
20260510012045 12 0 0.0 0.0 0.00 0.00 0.00 86 1009.5
20260510011556 12 0 0.0 0.0 0.00 0.00 0.00 86 1009.4
20260510011043 12 0 0.0 0.0 0.00 0.00 0.00 86 1009.4
20260510010542 12 0 0.0 0.0 0.00 0.00 0.00 85 1009.4
20260510010121 12 0 0.0 0.0 0.00 0.00 0.00 84 1009.4
20260510005544 12 0 0.0 0.0 0.00 0.00 0.00 83 1009.2
20260510005043 13 0 0.0 3.2 0.00 0.00 0.00 82 1009.2
20260510004555 13 0 0.0 3.2 0.00 0.00 0.00 82 1009.2
20260510004043 13 0 0.0 3.2 0.00 0.00 0.00 82 1009.3
20260510003544 13 0 0.0 3.2 0.00 0.00 0.00 81 1009.2
20260510003057 13 77 0.0 3.2 0.00 0.00 0.00 81 1009.3
20260510002544 13 0 0.0 3.2 0.00 0.00 0.00 80 1009.3
20260510002043 13 77 0.0 4.8 0.00 0.00 0.00 79 1009.3
20260510001603 14 0 0.0 4.8 0.00 0.00 0.00 79 1009.3
20260510001048 14 77 1.6 8.0 0.00 0.00 0.00 77 1009.1
20260510000545 15 88 1.6 8.0 0.00 0.00 0.00 76 1009.1
20260510000057 15 64 1.6 8.0 0.00 0.00 0.00 76 1009.1
20260509235542 15 79 1.6 8.0 0.00 0.00 0.00 75 1009.1
20260509235045 15 68 3.2 11.3 0.00 0.00 0.00 75 1009.2
20260509234609 15 76 4.8 14.5 0.00 0.00 0.00 74 1009.2
20260509234042 16 89 3.2 14.5 0.00 0.00 0.00 73 1009.2
20260509233547 16 45 3.2 14.5 0.00 0.00 0.00 73 1009.2
20260509233058 16 62 6.4 14.5 0.00 0.00 0.00 72 1009.1
20260509232543 16 73 4.8 16.1 0.00 0.00 0.00 72 1009.1
20260509232043 16 97 3.2 16.1 0.00 0.00 0.00 71 1009.1
20260509231554 16 65 8.0 16.1 0.00 0.00 0.00 71 1009.0
20260509231042 17 51 4.8 14.5 0.00 0.00 0.00 71 1009.0
20260509230543 17 80 4.8 17.7 0.00 0.00 0.00 70 1009.0
20260509230058 17 72 3.2 17.7 0.00 0.00 0.00 69 1008.9
20260509225544 17 55 9.7 17.7 0.00 0.00 0.00 69 1008.9
20260509225042 17 89 8.0 16.1 0.00 0.00 0.00 69 1008.9
20260509224555 17 84 3.2 16.1 0.00 0.00 0.00 70 1009.0
20260509224046 17 80 8.0 16.1 0.00 0.00 0.00 69 1008.9
20260509223545 17 59 9.7 16.1 0.00 0.00 0.00 69 1008.9
20260509223051 17 74 4.8 17.7 0.00 0.00 0.00 70 1008.9
20260509222545 17 66 8.0 19.3 0.00 0.00 0.00 69 1009.0
20260509222045 17 80 8.0 19.3 0.00 0.00 0.00 69 1009.0
20260509221555 17 10 9.7 16.1 0.00 0.00 0.00 69 1009.0
20260509221041 17 65 8.0 16.1 0.00 0.00 0.00 69 1009.0
20260509220542 17 89 4.8 12.9 0.00 0.00 0.00 69 1009.0
20260509220107 17 45 4.8 14.5 0.00 0.00 0.00 69 1009.0
20260509215545 17 39 6.4 14.5 0.00 0.00 0.00 70 1008.9
20260509215043 17 53 6.4 14.5 0.00 0.00 0.00 69 1008.9
20260509214554 17 72 1.6 14.5 0.00 0.00 0.00 69 1008.9
20260509214045 17 79 3.2 16.1 0.00 0.00 0.00 69 1008.9
20260509213548 17 47 4.8 16.1 0.00 0.00 0.00 68 1008.7
20260509213054 17 51 6.4 14.5 0.00 0.00 0.00 68 1008.8
20260509212542 17 58 1.6 12.9 0.00 0.00 0.00 69 1008.8
20260509212042 17 66 3.2 14.5 0.00 0.00 0.00 69 1008.8
20260509211555 17 0 3.2 14.5 0.00 0.00 0.00 68 1008.9
20260509211045 17 24 6.4 14.5 0.00 0.00 0.00 67 1008.7
20260509210543 18 44 3.2 14.5 0.00 0.00 0.00 68 1008.7
20260509210051 18 81 4.8 14.5 0.00 0.00 0.00 67 1008.8
20260509205545 18 41 1.6 6.4 0.00 0.00 0.00 66 1008.8
20260509205044 18 33 1.6 9.7 0.00 0.00 0.00 65 1008.9
20260509204550 18 0 1.6 12.9 0.00 0.00 0.00 67 1008.9
20260509204045 19 30 3.2 14.5 0.00 0.00 0.00 67 1009.0
20260509203546 19 7 4.8 14.5 0.00 0.00 0.00 66 1008.9
20260509203119 18 0 1.6 9.7 0.00 0.00 0.00 66 1009.0
20260509202545 18 329 3.2 9.7 0.00 0.00 0.00 68 1009.0
20260509202044 18 2 1.6 12.9 0.00 0.00 0.00 67 1008.9
20260509201604 19 0 3.2 12.9 0.00 0.00 0.00 66 1008.9
20260509201041 19 17 4.8 14.5 0.00 0.00 0.00 66 1008.9
20260509200543 19 0 4.8 14.5 0.00 0.00 0.00 66 1008.9
20260509200059 19 32 3.2 11.3 0.00 0.00 0.00 65 1008.9
20260509195545 18 17 1.6 11.3 0.00 0.00 0.00 64 1008.7
20260509195043 18 313 3.2 11.3 0.00 0.00 0.00 66 1008.8
20260509194552 18 34 3.2 9.7 0.00 0.00 0.00 65 1009.0
20260509194043 18 332 1.6 9.7 0.00 0.00 0.00 67 1008.9
20260509193543 18 21 3.2 9.7 0.00 0.00 0.00 65 1009.0
20260509193111 19 342 3.2 12.9 0.00 0.00 0.00 65 1009.0
20260509192542 19 321 3.2 12.9 0.00 0.00 0.00 62 1009.0
20260509192045 19 59 0.0 12.9 0.00 0.00 0.00 64 1008.8
20260509191558 18 0 3.2 16.1 0.00 0.00 0.00 64 1009.0
20260509191042 18 67 3.2 16.1 0.00 0.00 0.00 66 1009.2